Regional Weather Roundup
Issued by NWS

Home | Current Version | Previous Version | Graphics & Text | Print | Product List | Glossary On
Versions: 1 2 3 4 5 6 7 8 9 10 11 12 13 14 15 16 17 18 19 20 21 22 23 24 25 26 27 28 29 30 31 32 33 34 35 36 37 38 39 40 41 42 43 44 45 46 47 48 49 50
000
ASUS43 KIND 292309
RWRIN

WEATHER ROUNDUP FOR INDIANA
NATIONAL WEATHER SERVICE INDIANAPOLIS IN
700 PM EDT MON SEP 29 2014

NOTE: "FAIR" INDICATES FEW OR NO CLOUDS BELOW 12,000 FEET WITH NO
SIGNIFICANT WEATHER AND/OR OBSTRUCTIONS TO VISIBILITY.

* - STATION DOES NOT REPORT WEATHER SUCH AS PRECIPITATION OR FOG.

+ - STATION NOT QUALITY CONTROLLED BY THE NATIONAL WEATHER SERVICE.
    USE DATA WITH CAUTION...ESPECIALLY DEWPOINT AND RELATIVE
    HUMIDITY OBSERVATIONS.

INZ001>003-010>013-019-020-300000-
NORTHWEST INDIANA

CITY           SKY/WX    TMP DP  RH WIND       PRES   REMARKS
KNOX *+        CLEAR     77  56  48 CALM      29.93F
LA PORTE +     CLEAR     76  59  56 CALM      29.94F
MICHIGAN CITY+ CLEAR     70  61  73 CALM      29.93F
MONTICELLO +   CLEAR     76  59  54 CALM      29.93F
RENSSELAER +   CLEAR     79  54  41 NW3       29.94S
VALPARAISO     CLEAR     77  58  51 W3        29.94F

$$

LMZ046-743>745-300000-
SOUTHERN LAKE MICHIGAN

STATION/POSITION TIME  TEMP WIND        PRES
                       AIR  DIR/SP/G
                 (UTC) (F)  (DEG/KT/KT) (MB)
MICHIGAN CITY    2300   77     CALM       N/A

$$

INZ004-005-014>016-021>024-300000-
NORTH CENTRAL INDIANA

CITY           SKY/WX    TMP DP  RH WIND       PRES   REMARKS
ELKHART        CLEAR     73  57  56 W5        29.94F
LOGANSPORT +   CLEAR     75  54  46 CALM      29.95S
PERU/GRISSOM   CLEAR     77  58  51 N3        29.94F
ROCHESTER +    CLEAR     79  57  47 CALM      29.94F
SOUTH BEND     CLEAR     75  57  53 W3        29.94F
WARSAW +       CLEAR     72  57  60 NW6       29.94F

$$

INZ006>009-017-018-025>027-300000-
NORTHEAST INDIANA

CITY           SKY/WX    TMP DP  RH WIND       PRES   REMARKS
ANGOLA *+      CLEAR     75  57  53 CALM      29.94S
AUBURN +       CLEAR     73  54  49 W3        29.95S
FORT WAYNE     CLEAR     74  55  51 CALM      29.94F
HUNTINGTON +   CLEAR     74  56  55 CALM      29.94S

$$

INZ028-029-035-036-043>045-051>053-300000-
WEST CENTRAL INDIANA

CITY           SKY/WX    TMP DP  RH WIND       PRES   REMARKS
GREENCASTLE +  CLEAR     77  55  47 CALM      29.95F
LAFAYETTE      PTCLDY    76  61  59 CALM      29.93F
TERRE HAUTE    CLEAR     76  60  57 NE5       29.95S

$$

INZ030>032-037>040-046>048-054>057-064-065-300000-
CENTRAL INDIANA

CITY           SKY/WX    TMP DP  RH WIND       PRES   REMARKS
CP ATTERBURY + CLEAR     75  45  33 NW3       29.95S
FRANKFORT +    CLEAR     78  57  49 CALM      29.96F
GREENWOOD *+   CLEAR     77  43  29 CALM      29.95
INDIANAPOLIS   CLEAR     77  49  37 N6        29.94F
-EAGLE CREEK   CLEAR     78  50  37 N3        29.94F
KOKOMO *+      CLEAR     77  54  44 N3        29.95S
MARION +       CLEAR     76  49  37 N3        29.95F
MT COMFORT *+  CLEAR     77  30  18 CALM      29.96S
SHELBYVILLE    CLEAR     79  47  32 N5        29.94F
ZIONSVILLE +   CLEAR     75  53  45 CALM      29.96S

$$

INZ033-034-041-042-049-050-058-059-300000-
EAST CENTRAL INDIANA

CITY           SKY/WX    TMP DP  RH WIND       PRES   REMARKS
MUNCIE         CLEAR     75  52  44 N5        29.95S

$$

INZ060-061-067>069-081>083-085>088-300000-
SOUTHWEST INDIANA

CITY           SKY/WX    TMP DP  RH WIND       PRES   REMARKS
EVANSVILLE     CLEAR     83  53  35 N3        29.94S
WASHINGTON +   CLEAR     79  51  37 N5        29.94S

$$

INZ062-063-066-070>080-084-089>092-300000-
SOUTH CENTRAL AND SOUTHEAST INDIANA

CITY           SKY/WX    TMP DP  RH WIND       PRES   REMARKS
BLOOMINGTON    CLEAR     75  55  49 CALM      29.95F
SEYMOUR +      CLEAR     79  54  41 CALM      29.94F

$$




USA.gov is the U.S. government's official web portal to all federal, state and local government web resources and services.